Theta_e
337 333 335 338 339 340 341 336 334 336 332 332 334 334 334 333 333 334 335 331 333 336 340 343 344 341 340 338 333 333 337 338 334 336 336 335 337 337 326 326 328 332 333
339 339 339 340 340 341 341 342 339 337 337 333 332 332 333 334 334 334 334 335 334 337 338 340 340 340 339 339 337 337 337 337 334 333 337 338 339 340 334 323 323 323 332
340 343 343 341 340 342 342 342 342 340 339 338 333 332 333 336 337 339 339 333 333 335 336 334 334 334 334 335 335 338 335 330 334 334 340 341 341 335 330 328 337 328 333
341 343 342 340 341 342 342 342 343 342 340 341 333 333 334 334 334 334 336 339 337 335 334 335 337 336 337 333 330 331 332 334 341 330 332 333 342 337 331 332 331 328 330
340 339 337 338 340 341 340 340 341 342 341 341 334 334 334 332 332 335 336 338 339 340 339 336 333 337 338 325 329 339 341 343 344 341 340 326 328 331 323 327 325 332 335
338 339 338 337 336 334 334 334 338 341 340 340 338 334 331 333 335 336 335 338 339 340 340 337 335 334 328 329 339 341 341 344 344 344 342 339 330 331 329 326 331 338 337
336 338 338 336 333 331 332 331 333 335 337 339 337 341 339 339 337 337 337 332 339 336 338 338 334 326 328 331 339 344 344 344 344 341 341 339 340 335 330 341 336 329 330
331 333 336 333 330 332 333 331 330 332 335 335 331 331 340 340 340 339 337 330 337 338 331 337 325 329 326 330 341 345 345 343 340 342 341 341 332 331 336 328 325 323 323
330 331 332 330 330 331 332 331 329 328 329 333 335 339 339 340 340 340 341 336 325 332 336 328 328 334 326 337 343 344 345 343 340 340 343 342 325 325 328 329 334 329 323
331 331 330 330 329 330 331 332 330 328 333 340 335 337 339 341 337 338 339 340 324 328 337 335 338 333 325 337 342 343 346 345 341 343 343 339 332 325 329 325 325 328 332
333 332 331 330 329 330 331 332 333 330 328 332 342 331 331 334 339 342 336 337 325 339 337 328 327 323 324 330 341 342 343 343 345 343 345 341 333 326 327 327 326 324 325
341 335 334 331 330 330 331 332 334 333 330 329 330 335 337 329 337 338 335 336 335 326 336 329 327 325 326 328 338 342 342 345 346 346 344 343 329 326 324 323 323 325 329
348 345 338 333 331 331 331 332 334 335 335 336 336 335 335 332 332 336 333 332 335 332 324 329 331 326 335 330 333 341 344 346 345 346 345 345 338 335 336 333 324 323 323
350 349 342 335 333 332 332 333 334 336 336 337 338 337 339 341 341 337 343 342 339 334 329 332 332 331 333 335 333 339 340 341 344 344 344 341 339 340 341 340 335 326 324
352 351 348 337 333 333 334 334 334 335 337 337 340 339 341 346 346 347 346 345 344 341 337 328 333 332 334 334 334 340 341 344 344 344 345 344 343 343 341 340 339 339 336
352 350 350 348 344 337 336 334 337 339 336 337 340 342 338 343 344 344 344 346 346 344 344 336 329 327 333 337 343 344 344 345 345 345 346 346 344 344 344 341 341 340 341
350 350 349 350 349 348 347 339 341 339 340 340 343 343 343 347 346 346 343 346 344 344 344 344 343 335 332 329 342 341 343 345 344 345 346 347 346 345 344 344 343 341 340
347 349 348 350 349 350 348 342 344 345 342 345 344 347 343 347 345 347 345 345 344 346 344 344 344 343 342 342 341 341 341 342 343 344 345 345 347 344 345 344 344 344 345
347 348 347 348 349 349 349 347 346 346 346 345 340 343 344 344 345 346 347 346 347 345 346 343 344 343 343 343 341 345 343 344 340 339 341 345 345 344 346 348 347 346 345
348 348 347 346 348 349 348 348 348 349 348 346 351 347 340 342 345 346 348 348 348 347 346 344 344 345 343 345 342 345 345 344 343 344 342 341 343 343 343 344 347 346 346
349 349 348 347 347 349 349 349 349 350 349 349 349 349 345 346 345 343 345 348 348 348 344 343 342 343 343 342 345 345 344 343 344 342 343 344 343 343 343 344 343 344 344
350 350 349 348 347 348 348 348 348 346 350 348 349 350 349 347 347 348 346 345 344 342 341 343 344 343 341 341 342 343 344 344 345 346 344 344 343 344 345 345 344 342 343
350 350 349 349 348 348 348 349 349 347 347 348 349 348 350 349 349 347 345 346 346 346 341 341 341 344 344 346 344 342 344 343 343 344 345 344 344 343 345 344 344 344 345
348 348 349 349 348 348 348 348 349 345 343 341 342 346 348 348 346 348 348 347 348 349 344 340 342 344 345 344 345 343 342 343 343 342 341 342 342 343 344 345 343 344 345
349 349 349 348 349 348 348 346 347 344 336 335 336 337 341 342 346 349 348 348 349 350 346 340 344 346 345 345 346 346 346 344 344 345 344 344 344 345 345 345 343 344 345
348 348 349 350 348 348 348 348 345 341 337 336 338 337 339 341 346 348 349 349 350 351 348 344 343 344 344 345 345 345 345 345 345 344 346 346 345 341 341 346 346 345 346
Wind_Speed
35 28 25 22 23 21 19 18 19 19 19 19 20 20 21 21 22 22 22 24 23 23 23 17 19 19 17 15 15 11 6 6 8 11 13 16 18 17 15 14 15 17 17
35 31 24 21 19 19 20 18 19 18 19 19 21 20 19 20 21 21 21 22 20 20 19 17 18 15 14 14 12 9 7 8 10 13 17 17 18 18 16 14 16 17 17
29 32 28 23 21 20 20 17 18 19 18 17 19 21 19 19 19 18 18 19 19 19 17 15 14 14 14 13 13 13 12 15 16 14 16 14 17 16 14 14 15 17 16
28 30 29 25 22 21 20 19 18 17 18 16 16 18 19 18 17 16 16 17 18 17 16 15 14 12 14 14 16 17 18 22 20 17 14 12 13 13 12 15 15 14 15
31 30 29 25 22 21 20 19 19 19 17 17 16 17 16 16 15 16 16 17 17 16 16 16 13 14 19 18 19 21 22 19 15 15 11 11 9 10 12 13 14 14 14
30 28 27 26 22 19 18 18 17 18 17 16 16 15 16 15 16 15 16 16 14 15 15 15 14 17 19 24 22 19 18 16 13 11 10 9 8 9 12 14 14 13 12
30 28 26 25 23 20 18 17 18 17 16 16 16 15 15 15 14 14 14 14 14 14 14 13 13 16 21 24 22 20 16 11 11 13 12 9 5 4 10 12 12 10 10
30 29 26 25 23 21 19 18 17 18 17 16 16 15 15 15 14 14 13 13 15 12 13 13 13 18 21 26 23 19 17 12 10 14 9 5 1 5 8 10 10 9 10
28 27 25 24 23 21 20 18 17 17 17 16 14 15 14 14 14 14 13 13 14 14 12 15 16 19 22 27 22 22 15 13 11 12 9 3 3 6 7 9 10 10 10
30 31 29 26 24 22 20 18 17 17 18 18 16 15 15 14 14 14 14 12 13 15 14 15 14 17 21 27 24 20 17 14 13 11 8 5 3 5 5 7 9 10 10
30 31 30 29 26 24 22 20 18 17 17 17 16 15 15 14 14 14 13 12 12 13 14 14 14 16 19 25 23 20 18 13 12 8 9 9 4 4 5 6 7 9 11
34 31 29 28 27 26 25 23 22 21 20 19 18 17 16 15 14 13 13 12 11 12 13 13 15 19 20 24 24 20 18 14 10 7 8 9 6 5 3 4 6 8 9
33 30 29 29 29 28 27 26 24 23 22 20 18 18 16 17 17 15 14 13 11 11 13 14 17 20 18 21 22 20 17 12 11 11 13 12 7 4 2 3 5 7 8
36 29 27 29 30 29 28 28 25 23 22 22 21 20 19 19 18 17 15 12 10 10 11 13 15 18 18 18 20 22 15 10 3 5 9 13 7 3 2 5 5 6 8
35 31 26 26 31 29 28 27 26 25 24 22 23 22 21 19 18 17 15 12 9 10 11 13 15 17 19 19 20 16 11 7 7 6 9 12 8 4 3 4 6 6 7
35 33 29 28 26 28 28 29 25 23 23 23 22 21 21 20 19 18 16 13 13 9 9 12 14 19 21 20 17 12 8 8 10 8 9 16 12 7 4 5 6 7 7
38 34 32 32 29 26 24 28 25 23 23 26 24 22 21 20 21 17 17 14 10 10 8 10 16 18 19 21 21 15 12 12 13 12 11 12 12 8 8 7 8 8 9
42 39 34 34 34 31 26 26 26 26 25 26 22 22 21 25 22 19 19 18 15 14 14 12 17 22 20 22 21 20 16 15 19 19 17 14 16 12 11 11 11 9 9
49 44 40 38 38 34 31 26 29 28 26 24 19 21 21 25 24 25 24 20 20 18 16 16 17 22 24 22 22 17 19 20 18 19 26 22 19 18 15 13 14 13 12
50 48 44 41 39 38 34 30 31 30 29 27 24 28 24 21 27 26 24 23 23 21 19 18 21 22 26 24 24 24 21 22 19 19 17 25 27 24 21 21 18 15 15
50 50 48 47 44 43 42 38 37 38 35 33 29 25 26 22 28 29 27 26 26 28 24 18 19 22 23 26 26 25 26 28 27 22 20 20 22 21 20 20 23 25 19
56 53 51 49 47 47 45 41 39 39 40 37 34 30 27 26 29 29 28 26 30 30 26 22 22 23 22 22 25 25 24 28 31 27 29 27 26 25 25 25 23 23 22
58 58 55 53 48 49 46 45 42 41 41 40 40 36 33 29 27 26 25 25 24 25 30 26 24 27 26 24 25 23 13 16 20 28 27 28 29 28 28 30 29 27 27
61 60 58 56 53 49 49 48 47 46 48 47 45 44 41 35 30 28 28 27 25 24 27 30 28 27 29 27 25 28 30 13 9 10 18 24 30 31 31 29 30 29 28
57 59 62 60 58 54 52 49 47 46 43 43 42 41 41 39 34 31 30 29 29 25 25 29 28 29 29 27 28 30 30 31 31 24 19 17 15 20 24 28 29 29 30
57 61 60 63 59 57 55 52 48 46 43 41 39 37 37 38 36 33 32 32 30 26 26 29 30 31 31 30 30 30 32 31 33 30 31 30 26 25 25 24 28 29 33
Wind_Direction
173 164 157 157 154 148 146 141 133 128 126 129 128 129 130 128 126 130 138 142 140 138 141 137 134 134 130 138 147 152 127 108 105 117 128 129 124 120 117 129 128 125 120
172 182 177 168 165 159 154 151 146 141 136 136 136 136 135 135 135 134 138 143 147 146 146 136 135 136 135 141 149 157 138 115 117 127 131 127 125 114 111 119 125 121 119
170 176 178 172 167 164 157 160 152 150 148 139 142 142 141 140 139 138 144 148 151 153 151 144 142 141 136 136 143 146 136 124 124 130 131 127 127 120 119 121 122 122 125
168 167 169 170 166 163 165 162 162 158 151 145 144 145 145 147 140 142 148 150 154 159 160 151 145 150 147 138 142 142 138 137 114 122 124 127 135 138 121 128 131 124 124
172 168 165 167 166 165 167 168 165 163 160 153 153 150 150 147 144 143 143 145 153 156 156 153 146 137 139 140 140 139 137 139 125 118 105 116 135 135 136 133 132 131 131
174 171 165 165 166 167 167 166 165 164 161 159 155 153 150 150 147 142 141 143 147 156 156 153 145 141 137 141 141 141 136 130 134 141 126 113 132 134 135 136 138 138 138
172 173 171 166 166 169 168 167 166 165 164 162 161 162 154 153 151 146 147 152 152 150 154 158 155 147 146 150 146 136 132 128 144 141 121 122 125 143 148 147 147 144 141
171 173 175 170 168 168 169 169 167 167 170 171 168 166 164 161 160 155 155 156 157 161 164 170 160 147 151 155 151 144 136 143 147 141 130 134 260 165 169 157 153 151 156
169 169 175 174 173 172 170 168 168 170 170 167 166 166 166 168 169 165 161 161 165 161 158 157 151 149 154 158 156 150 153 154 153 143 159 179 154 167 177 173 163 159 158
168 171 175 179 179 176 172 170 170 170 169 170 170 174 172 169 172 170 166 169 165 163 166 162 160 156 160 166 162 161 154 157 165 170 190 190 165 167 188 184 177 173 172
173 178 179 179 183 181 177 174 175 174 176 173 171 176 176 179 175 172 170 173 171 168 174 168 166 161 161 169 172 170 164 160 168 181 192 203 207 179 201 205 191 182 180
182 184 185 185 185 186 184 182 179 178 179 179 179 178 172 172 177 175 176 180 177 180 185 175 166 160 159 171 178 178 172 170 187 202 204 210 206 175 196 224 211 200 195
190 191 192 191 189 190 190 188 185 183 183 183 181 180 176 173 174 178 176 182 183 184 193 185 173 172 170 176 180 177 169 183 214 235 193 204 205 168 203 238 230 213 206
191 194 194 198 194 194 196 194 191 188 186 187 182 182 186 182 178 173 174 182 193 200 197 199 187 181 181 182 180 174 178 188 251 201 187 197 199 180 251 237 231 228 219
195 194 189 189 197 199 200 199 196 195 194 190 189 188 184 187 190 186 187 181 189 201 202 207 198 189 186 183 178 184 185 189 235 235 231 213 210 204 231 223 230 251 243
202 198 193 190 193 200 201 200 195 200 202 199 195 197 195 190 187 190 191 194 204 203 200 201 201 195 193 198 193 194 209 229 226 232 254 215 218 215 222 237 227 242 251
206 205 201 198 198 201 204 201 199 193 197 198 196 195 198 195 192 194 199 203 206 207 207 202 201 186 193 206 207 211 218 230 225 221 219 219 228 234 229 236 244 241 253
215 210 206 203 204 206 204 200 197 194 197 199 194 203 199 202 201 206 208 213 214 221 226 223 212 207 199 199 206 214 215 228 246 239 236 233 214 241 248 247 259 259 252
212 212 214 209 207 211 208 206 204 200 207 215 216 216 206 211 211 214 214 219 218 227 235 230 224 221 218 213 213 224 231 235 240 240 239 236 233 240 238 246 256 258 253
207 213 215 214 210 212 212 209 208 208 212 212 218 221 215 216 215 214 218 222 224 230 237 232 226 223 225 222 222 226 230 236 231 231 233 239 245 251 251 251 255 250 252
212 213 213 215 212 210 208 207 209 208 210 217 220 218 213 215 215 219 222 230 235 240 241 234 228 220 223 225 228 234 237 239 239 231 229 227 237 241 251 253 255 253 252
214 214 214 215 216 212 215 214 215 212 214 220 224 223 218 220 222 226 230 230 235 240 238 235 223 222 217 219 225 231 242 242 241 241 236 237 240 239 242 249 252 249 248
215 215 216 215 217 215 215 214 215 217 216 219 225 225 221 221 225 231 229 231 237 241 233 229 231 225 222 220 225 227 231 242 252 246 245 245 245 246 248 249 250 251 251
221 222 217 217 216 217 216 217 217 217 215 218 220 222 226 229 228 234 238 240 242 247 237 232 237 225 228 225 225 227 229 241 234 247 248 245 246 250 254 256 249 249 251
225 223 223 215 219 216 218 218 219 220 219 220 219 221 222 225 227 231 237 239 240 242 235 228 228 234 235 234 232 233 235 238 244 252 262 250 249 249 251 247 247 248 248
228 228 224 218 219 218 217 218 220 221 216 219 220 219 221 222 226 231 234 239 243 244 237 228 228 233 236 240 241 240 242 245 246 250 255 263 263 263 263 259 245 245 250